Snowfall_Accumulation
0.0 0.0 0.2 0.0 0.0 0.0 0.0 0.1 0.0 0.0 0.0 0.0 0.0 0.0 0.0 0.0 0.0 0.0 0.0 0.0 0.0 0.0 0.0 0.0 0.0 0.0 0.0 0.0 0.0 0.0 0.0 0.0 0.0 0.0 0.0 0.0 0.0 0.0 0.0 0.0 0.0 0.0 0.0 0.0
0.1 0.0 0.0 0.0 0.0 0.0 0.0 0.1 0.1 0.0 0.0 0.0 0.0 0.0 0.0 0.0 0.0 0.0 0.0 0.0 0.0 0.0 0.1 0.0 0.0 0.0 0.0 0.0 0.0 0.0 0.0 0.0 0.0 0.0 0.0 0.0 0.0 0.0 0.0 0.0 0.0 0.0 0.0 0.0
0.1 0.0 0.0 0.0 0.0 0.0 0.0 0.1 0.0 0.0 0.0 0.0 0.0 0.4 0.1 0.0 0.0 0.0 0.0 0.0 0.0 0.1 0.1 0.1 0.1 0.1 0.0 0.0 0.0 0.0 0.0 0.0 0.0 0.0 0.0 0.0 0.0 0.0 0.0 0.0 0.0 0.0 0.0 0.0
0.0 0.0 0.0 0.0 0.0 0.0 1.0 0.0 0.0 0.0 2.6 1.5 0.2 8.5 0.0 0.0 0.0 0.0 0.0 0.0 0.0 0.0 0.0 0.0 0.0 0.1 0.1 0.0 0.0 0.0 0.0 0.0 0.0 0.0 0.0 0.0 0.0 0.0 0.0 0.0 0.0 0.0 0.0 0.0
0.0 0.0 0.0 1.2 0.0 0.0 1.5 0.0 0.0 0.1 1.7 2.6 0.2 5.7 0.1 0.0 0.0 0.0 0.0 0.0 0.1 0.1 0.2 0.1 0.2 0.2 0.1 0.1 0.0 0.0 0.0 0.0 0.0 0.0 0.0 0.0 0.0 0.0 0.0 0.0 0.0 0.0 0.0 0.0
0.0 0.0 0.0 0.0 0.0 0.0 0.0 0.2 0.0 0.6 0.7 19.1 1.0 0.5 0.3 0.4 1.3 0.0 0.0 0.0 0.0 0.1 0.0 0.0 0.1 0.1 0.1 0.0 0.0 0.0 0.0 0.1 0.1 0.1 0.1 0.1 0.1 0.0 0.0 0.0 0.0 0.0 0.0 0.0
0.1 0.0 0.0 0.0 0.1 0.0 0.2 0.7 15.5 21.2 28.2 10.8 0.2 0.4 0.5 0.2 0.3 0.4 0.4 0.1 0.3 0.1 0.0 0.0 0.0 0.1 0.1 0.1 0.1 0.1 0.1 0.2 0.2 0.2 0.2 0.2 0.2 0.1 0.1 0.0 0.0 0.0 0.2 0.3
3.1 5.4 0.3 0.1 0.6 2.5 0.2 2.7 7.4 10.1 7.9 2.7 0.1 7.5 2.0 1.0 1.5 2.8 1.0 1.4 0.1 0.0 0.0 0.1 0.1 0.1 0.1 0.0 0.0 0.1 0.1 0.3 0.3 0.3 0.3 0.3 0.4 0.4 0.1 0.1 0.0 0.1 1.0 1.1
4.7 1.6 0.0 0.1 0.1 0.1 0.8 3.0 0.2 6.5 4.2 7.6 2.1 0.3 0.2 0.1 0.8 1.0 2.3 0.0 0.1 0.1 0.1 0.2 0.1 0.2 0.2 0.1 0.2 0.2 0.2 0.3 0.4 0.4 0.5 0.4 0.5 0.5 0.5 0.3 0.3 0.5 0.3 0.6
1.1 7.3 0.0 0.1 0.4 0.1 0.3 0.1 5.2 4.9 14.9 7.7 1.8 1.1 4.6 2.0 3.8 0.7 2.3 0.4 0.3 0.1 0.1 0.2 0.2 0.2 0.1 0.2 0.3 0.3 0.5 2.8 2.4 1.0 0.6 0.5 0.8 1.1 2.1 2.8 1.7 2.7 3.0 2.7
0.2 4.2 0.9 0.6 7.6 6.6 1.6 1.5 0.9 1.6 5.3 14.0 7.9 7.1 11.4 5.2 5.2 5.8 1.4 0.5 0.8 0.4 0.5 0.4 0.3 0.3 1.4 1.5 2.1 2.0 2.5 6.0 2.4 2.1 1.2 1.2 1.4 1.8 3.8 3.2 3.1 5.3 6.1 7.7
0.3 2.4 9.0 6.2 4.0 0.8 0.6 4.1 1.7 10.3 7.0 5.7 8.4 9.1 6.5 6.7 7.3 3.8 1.3 0.7 0.5 0.5 0.9 0.8 1.2 2.3 4.1 4.3 4.5 5.8 5.3 7.9 3.6 2.8 1.8 2.0 1.8 2.6 5.4 5.0 4.9 4.5 4.9 5.1
1.2 1.6 8.9 7.2 4.3 0.8 3.1 1.7 2.5 2.3 3.6 9.1 11.8 9.9 5.8 5.8 4.0 2.3 3.4 1.4 1.0 1.0 0.9 2.1 4.3 6.6 6.9 6.4 7.2 9.0 9.2 7.4 4.2 3.7 2.3 2.4 2.9 2.4 3.9 5.4 4.1 3.0 2.2 2.4
nan 0.9 7.7 10.6 9.4 7.4 8.7 3.8 1.1 2.5 17.0 9.9 12.3 12.0 9.5 7.3 6.1 3.5 2.5 1.9 2.9 4.7 7.0 7.5 7.5 8.7 9.2 9.5 11.2 9.6 11.0 6.2 5.6 4.9 3.5 3.7 3.9 3.6 3.3 3.4 3.5 2.4 2.5 2.5
1.0 7.4 5.4 6.5 6.5 10.6 9.7 7.5 4.0 7.0 8.7 9.4 13.5 13.3 14.3 12.4 10.9 9.7 8.2 6.1 5.9 7.8 7.5 9.3 12.0 13.3 14.8 13.6 11.1 7.7 6.7 6.5 6.3 6.6 5.4 6.4 5.8 4.8 5.2 5.1 5.2 4.0 3.3 3.3
0.7 5.7 5.4 6.1 5.5 8.6 8.3 5.0 3.8 2.9 3.8 5.2 7.2 11.1 13.3 13.2 11.8 12.3 12.8 10.9 12.6 12.9 13.1 14.5 17.0 16.9 15.2 13.1 11.5 7.1 6.7 7.1 7.4 8.4 9.9 9.4 6.2 5.4 5.1 4.1 4.8 3.7 4.4 4.4
2.5 6.4 9.8 17.1 4.1 2.9 13.9 18.7 8.7 11.4 7.8 4.1 11.6 16.4 19.8 21.4 16.7 16.0 14.8 15.6 16.3 16.9 20.1 21.6 18.6 14.5 8.9 6.1 3.3 4.6 5.2 5.1 3.5 3.8 3.8 3.4 3.7 3.2 3.3 2.8 2.6 3.9 4.4 2.8
3.3 5.6 5.7 19.0 8.2 41.8 15.3 7.7 8.0 18.6 12.4 12.5 9.3 12.9 16.4 22.9 23.2 19.7 17.0 15.5 17.6 18.1 14.8 10.1 5.5 3.0 3.4 1.7 1.9 0.5 0.5 0.9 1.6 2.5 2.0 2.0 2.0 2.0 1.6 1.5 2.0 1.9 1.8 1.6
1.8 3.7 21.9 34.1 22.7 5.1 0.6 9.9 12.8 10.6 15.7 16.1 15.9 11.7 15.4 12.6 6.1 12.2 14.2 13.8 15.8 12.0 8.1 7.6 6.4 6.6 1.6 2.8 2.1 1.0 1.6 1.1 1.1 2.4 2.3 2.0 1.3 1.5 1.0 1.3 1.3 1.3 1.1 1.1
2.0 1.9 4.2 25.4 26.3 30.4 6.7 3.6 1.1 4.0 14.5 16.0 18.4 17.8 11.2 0.1 5.6 12.5 12.8 7.3 7.7 6.6 5.1 4.7 3.6 2.5 1.5 1.9 0.6 0.2 0.3 0.3 0.7 0.7 0.8 0.9 0.8 0.8 0.9 0.6 0.6 0.7 0.4 0.3
13.5 15.2 25.3 20.4 20.5 10.7 3.3 0.3 0.0 7.7 11.8 16.7 14.9 14.5 1.9 3.9 5.2 9.2 6.1 4.4 3.8 3.6 3.8 2.3 1.9 2.0 1.6 1.2 1.4 1.1 0.8 1.1 0.4 0.4 0.2 0.2 0.2 0.6 0.2 0.2 0.2 0.3 0.4 0.2
6.8 13.4 24.8 17.7 22.9 33.9 1.5 0.0 4.0 6.9 8.2 10.2 7.7 6.0 5.4 7.6 7.5 5.4 4.2 4.2 2.9 3.0 1.5 1.0 0.3 0.2 0.1 0.1 0.1 0.1 0.2 0.2 0.4 0.6 0.7 0.9 1.5 0.7 0.7 2.6 1.2 2.1 1.6 1.8
6.2 1.7 4.4 2.5 4.9 2.7 2.9 3.1 3.9 5.4 4.9 4.5 2.3 1.9 0.6 0.5 0.8 0.1 0.1 0.0 0.0 0.0 0.0 0.0 0.1 0.1 0.1 0.4 0.3 0.6 0.7 0.7 1.4 2.7 4.3 3.7 2.8 2.1 1.9 3.4 2.1 3.8 2.6 3.8
0.6 0.3 1.4 1.8 1.2 2.4 3.0 1.4 1.7 1.9 0.3 0.1 0.0 0.1 0.0 0.0 0.0 0.0 0.0 0.0 0.0 0.0 0.1 0.1 0.3 0.5 0.5 0.4 0.4 0.3 0.6 1.0 5.3 5.0 2.6 1.8 2.3 1.3 1.6 2.2 2.7 4.2 4.1 3.9
0.2 0.1 0.3 0.9 0.5 1.0 0.5 0.2 0.3 0.8 0.8 0.2 0.3 0.3 0.1 0.1 0.0 0.0 0.0 0.1 0.0 0.1 0.2 0.4 0.5 0.5 0.6 0.6 0.6 1.5 1.4 2.2 2.5 3.1 1.9 2.2 2.9 3.0 1.9 1.7 2.9 2.6 1.1 3.2
0.2 0.3 0.5 0.7 0.2 0.2 0.1 0.0 0.0 0.0 0.2 0.1 0.0 0.0 0.0 0.1 0.0 0.1 0.1 0.1 0.1 0.2 0.4 0.8 1.1 1.1 1.2 1.9 2.2 3.3 4.3 3.7 4.2 2.1 3.4 3.1 3.0 3.0 2.8 3.2 4.0 nan nan nan
Water_Equivalent
0.00 0.00 0.07 0.00 0.00 0.00 0.00 0.01 0.01 0.00 0.00 0.00 0.00 0.01 0.00 0.00 0.00 0.00 0.00 0.00 0.00 0.00 0.00 0.00 0.00 0.00 0.00 0.00 0.00 0.00 0.00 0.00 0.00 0.00 0.00 0.00 0.00 0.00 0.00 0.00 0.00 0.00 0.00 0.00
0.02 0.01 0.00 0.00 0.00 0.00 0.00 0.01 0.03 0.00 0.00 0.00 0.00 0.01 0.01 0.00 0.00 0.00 0.00 0.00 0.00 0.01 0.01 0.01 0.00 0.00 0.00 0.00 0.00 0.00 0.00 0.00 0.00 0.00 0.00 0.00 0.00 0.00 0.00 0.00 0.00 0.00 0.00 0.00
0.02 0.00 0.00 0.00 0.00 0.01 0.01 0.02 0.01 0.00 0.00 0.00 0.00 0.07 0.02 0.00 0.00 0.00 0.00 0.00 0.00 0.01 0.02 0.02 0.02 0.02 0.01 0.00 0.00 0.00 0.00 0.00 0.00 0.00 0.00 0.00 0.00 0.00 0.00 0.00 0.00 0.00 0.00 0.00
0.00 0.00 0.00 0.00 0.00 0.00 0.18 0.00 0.00 0.01 0.43 0.26 0.04 1.09 0.00 0.00 0.00 0.00 0.00 0.00 0.00 0.01 0.00 0.00 0.00 0.01 0.01 0.00 0.00 0.00 0.00 0.00 0.00 0.00 0.00 0.00 0.00 0.00 0.00 0.00 0.00 0.00 0.00 0.00
0.01 0.00 0.01 0.24 0.00 0.00 0.29 0.00 0.00 0.02 0.32 0.34 0.03 0.72 0.01 0.00 0.00 0.00 0.00 0.00 0.01 0.02 0.03 0.02 0.03 0.03 0.02 0.01 0.01 0.00 0.00 0.01 0.01 0.01 0.00 0.00 0.00 0.00 0.00 0.00 0.00 0.00 0.00 0.00
0.01 0.00 0.01 0.01 0.00 0.00 0.00 0.03 0.00 0.12 0.15 2.92 0.14 0.08 0.05 0.06 0.17 0.00 0.00 0.00 0.00 0.02 0.01 0.00 0.02 0.02 0.02 0.01 0.00 0.00 0.01 0.01 0.01 0.01 0.02 0.02 0.02 0.00 0.01 0.00 0.00 0.00 0.00 0.00
0.01 0.01 0.00 0.00 0.03 0.00 0.05 0.14 2.65 3.76 4.61 1.73 0.04 0.07 0.06 0.03 0.05 0.06 0.05 0.01 0.04 0.02 0.01 0.01 0.01 0.01 0.01 0.01 0.01 0.02 0.02 0.03 0.03 0.04 0.03 0.03 0.03 0.02 0.02 0.00 0.00 0.01 0.08 0.08
0.67 1.28 0.07 0.03 0.12 0.44 0.04 0.43 1.07 1.10 1.02 0.44 0.02 1.10 0.33 0.15 0.22 0.38 0.14 0.21 0.02 0.01 0.01 0.01 0.01 0.01 0.01 0.00 0.01 0.01 0.02 0.05 0.05 0.05 0.05 0.05 0.06 0.06 0.02 0.01 0.01 0.01 0.27 0.34
0.85 0.35 0.00 0.03 0.04 0.01 0.13 0.50 0.03 0.89 0.69 0.77 0.41 0.05 0.04 0.02 0.12 0.14 0.29 0.01 0.02 0.02 0.03 0.04 0.03 0.03 0.03 0.03 0.03 0.04 0.03 0.05 0.07 0.07 0.07 0.07 0.08 0.08 0.09 0.07 0.07 0.13 0.06 0.17
0.23 1.18 0.00 0.02 0.12 0.02 0.05 0.02 0.74 0.93 2.08 0.93 0.26 0.16 0.67 0.28 0.48 0.08 0.30 0.06 0.05 0.02 0.03 0.03 0.04 0.04 0.03 0.04 0.05 0.05 0.10 0.51 0.40 0.18 0.11 0.08 0.12 0.17 0.34 0.44 0.26 0.48 0.62 0.50
0.04 0.68 0.18 0.10 1.62 1.20 0.26 0.23 0.13 0.23 0.79 1.59 0.87 1.08 1.99 0.55 0.52 0.54 0.19 0.08 0.11 0.07 0.08 0.07 0.06 0.06 0.30 0.34 0.61 0.39 0.46 1.22 0.45 0.33 0.19 0.19 0.22 0.27 0.55 0.45 0.46 0.86 1.01 1.33
0.05 0.42 1.45 1.33 0.85 0.14 0.11 0.69 0.27 1.61 0.97 0.85 1.07 0.98 1.06 0.76 0.77 0.43 0.16 0.11 0.08 0.09 0.14 0.13 0.18 0.44 0.99 1.02 1.09 1.12 0.92 1.54 0.71 0.59 0.32 0.33 0.29 0.39 0.90 0.74 0.69 0.69 0.76 0.88
0.23 0.33 1.71 1.45 0.81 0.12 0.46 0.26 0.37 0.27 0.54 1.23 1.68 1.29 0.76 0.73 0.59 0.32 0.40 0.19 0.15 0.16 0.14 0.30 0.70 1.38 1.59 1.22 1.29 1.66 1.58 1.41 0.75 0.81 0.47 0.42 0.52 0.41 0.76 0.99 0.78 0.58 0.42 0.44
nan 0.15 0.96 1.47 1.45 1.25 1.09 0.50 0.15 0.34 2.99 1.47 1.30 1.27 1.04 0.80 0.77 0.50 0.40 0.25 0.35 0.54 0.82 1.10 1.13 1.50 1.65 1.72 2.04 1.66 2.01 1.28 1.18 1.07 0.60 0.57 0.67 0.61 0.53 0.56 0.64 0.40 0.49 0.51
0.17 1.20 0.63 0.85 0.86 1.45 1.42 0.94 0.44 0.72 1.08 1.19 1.46 1.27 1.37 1.27 1.16 1.18 1.05 0.73 0.64 0.85 0.89 1.18 1.68 2.03 2.66 2.56 2.03 1.42 1.18 1.23 1.27 1.29 0.83 0.88 0.89 0.68 0.75 0.69 0.79 0.55 0.50 0.57
0.12 1.20 0.62 0.92 0.81 1.24 1.16 0.63 0.50 0.34 0.41 0.59 0.86 1.16 1.70 1.56 1.32 1.45 1.59 1.15 1.17 1.30 1.46 1.96 2.47 2.69 2.21 1.84 1.51 1.01 0.88 1.01 1.23 1.21 1.37 1.21 0.76 0.65 0.57 0.48 0.58 0.51 0.79 0.87
0.36 0.89 2.15 3.65 0.55 0.39 2.61 2.06 1.01 1.32 0.91 0.50 1.13 2.48 2.61 2.47 1.68 1.77 1.58 1.51 1.54 1.91 2.47 2.67 2.36 1.61 0.91 0.65 0.34 0.47 0.58 0.60 0.43 0.47 0.41 0.36 0.40 0.34 0.39 0.32 0.31 0.52 0.64 0.41
0.41 0.81 1.13 4.31 1.96 7.32 2.21 1.10 1.09 2.29 1.46 1.38 1.01 1.53 2.14 2.80 2.44 2.17 1.91 1.63 1.65 1.75 1.64 1.16 0.73 0.44 0.56 0.23 0.31 0.08 0.06 0.11 0.19 0.29 0.23 0.23 0.22 0.26 0.23 0.20 0.29 0.30 0.29 0.26
0.30 0.53 4.61 6.59 3.81 0.80 0.13 1.27 1.46 1.14 1.94 1.94 1.70 1.34 2.05 1.76 0.64 1.69 1.86 1.50 1.71 1.26 0.99 0.93 0.89 0.92 0.22 0.38 0.27 0.12 0.20 0.14 0.13 0.30 0.31 0.30 0.21 0.25 0.18 0.20 0.20 0.22 0.19 0.17
0.30 0.27 0.68 5.52 5.41 4.40 1.02 0.50 0.20 0.59 1.91 2.04 2.39 2.18 1.53 0.02 0.79 2.16 2.20 1.06 1.06 0.84 0.62 0.58 0.45 0.34 0.22 0.29 0.10 0.04 0.05 0.06 0.10 0.11 0.12 0.14 0.15 0.15 0.17 0.12 0.12 0.13 0.09 0.07
2.53 3.38 5.48 4.29 4.31 1.94 0.53 0.06 0.00 0.99 1.71 2.23 2.04 1.96 0.24 0.43 0.78 1.45 0.83 0.59 0.56 0.48 0.50 0.33 0.27 0.26 0.26 0.23 0.24 0.16 0.13 0.17 0.09 0.08 0.05 0.04 0.05 0.11 0.04 0.05 0.04 0.06 0.08 0.04
1.15 2.52 4.98 3.47 4.50 5.26 0.25 0.00 0.42 1.08 1.20 1.46 1.14 0.80 0.64 1.04 1.03 0.74 0.56 0.58 0.40 0.38 0.19 0.17 0.05 0.03 0.03 0.02 0.01 0.02 0.03 0.03 0.05 0.07 0.09 0.11 0.24 0.12 0.11 0.47 0.21 0.39 0.28 0.31
0.99 0.30 0.95 0.38 0.91 0.48 0.44 0.48 0.63 0.76 0.73 0.71 0.34 0.25 0.08 0.06 0.10 0.02 0.01 0.00 0.00 0.00 0.00 0.00 0.01 0.02 0.01 0.05 0.05 0.07 0.07 0.08 0.15 0.36 0.61 0.56 0.45 0.34 0.32 0.60 0.33 0.65 0.44 0.66
0.10 0.05 0.28 0.31 0.21 0.38 0.47 0.24 0.28 0.30 0.06 0.01 0.00 0.01 0.00 0.00 0.01 0.00 0.00 0.00 0.00 0.01 0.01 0.02 0.06 0.07 0.07 0.05 0.06 0.05 0.08 0.13 0.83 0.80 0.36 0.24 0.33 0.22 0.26 0.43 0.52 0.82 0.72 0.64
0.07 0.03 0.06 0.16 0.09 0.20 0.10 0.03 0.05 0.12 0.14 0.03 0.03 0.04 0.01 0.01 0.00 0.00 0.01 0.02 0.01 0.01 0.03 0.06 0.08 0.07 0.07 0.07 0.08 0.20 0.18 0.29 0.36 0.47 0.23 0.31 0.46 0.50 0.28 0.25 0.50 0.42 0.18 0.56
0.04 0.06 0.12 0.17 0.05 0.03 0.01 0.00 0.00 0.00 0.03 0.01 0.00 0.01 0.01 0.01 0.01 0.01 0.02 0.01 0.02 0.04 0.05 0.10 0.13 0.12 0.12 0.19 0.23 0.37 0.58 0.53 0.56 0.23 0.44 0.43 0.44 0.42 0.38 0.41 0.47 nan nan nan
SL_Ratio
nan nan 2.9 nan nan nan nan 4.5 5.0 nan nan 5.0 nan 5.0 nan nan nan nan nan nan nan nan nan nan nan nan nan nan nan nan nan nan nan nan nan nan nan nan nan nan nan nan nan nan
3.1 3.1 nan nan nan nan nan 4.7 4.5 nan nan 5.0 4.0 5.6 4.4 nan nan nan nan nan nan 5.0 5.0 4.5 4.2 nan nan nan nan nan nan nan nan nan nan nan nan nan nan nan nan nan nan nan
3.0 nan nan nan nan 3.6 4.4 4.7 5.0 5.7 nan nan 5.0 6.2 5.2 4.0 nan nan nan 5.0 5.0 5.6 5.8 5.5 4.8 5.5 5.0 nan nan nan nan nan nan nan nan nan nan nan nan nan nan nan nan nan
5.0 nan nan nan 5.0 5.0 5.2 nan nan 3.7 6.2 6.0 5.4 7.8 nan nan nan nan nan 5.0 6.4 6.0 nan 7.5 6.3 5.6 5.2 5.0 nan nan nan 2.5 nan nan nan nan nan nan nan nan nan nan nan nan
3.8 5.0 3.6 4.9 nan nan 5.2 nan 3.3 4.4 5.3 7.6 6.1 8.0 6.7 nan nan nan nan 10.0 6.4 6.0 5.8 5.6 5.8 5.4 5.2 4.7 4.6 nan 5.0 4.2 4.4 4.6 nan 5.0 5.0 nan nan nan nan nan nan nan
3.2 nan 3.4 3.2 nan nan 0.0 4.8 3.3 4.8 4.9 6.5 7.2 6.2 7.1 7.3 7.5 nan nan nan nan 5.8 5.6 5.7 4.8 5.1 5.2 5.0 5.0 3.8 5.0 5.0 4.5 4.8 4.8 5.0 5.4 5.0 5.4 nan nan nan nan nan
3.9 3.2 nan 2.5 4.0 nan 3.8 5.1 5.8 5.6 6.1 6.3 5.6 5.3 7.4 6.5 6.5 6.7 7.6 6.3 5.9 5.3 5.0 5.0 4.1 4.8 5.3 5.5 5.2 5.2 5.4 5.8 5.5 5.5 5.3 5.2 5.4 5.5 5.6 5.0 5.0 3.2 3.1 3.4
4.6 4.2 3.8 2.7 5.1 5.6 5.5 6.3 6.9 9.1 7.7 6.1 5.8 6.8 6.0 6.7 6.8 7.3 7.6 6.6 5.8 4.6 5.0 5.2 5.4 5.7 5.6 5.0 5.0 5.2 5.3 6.1 6.1 6.0 6.1 5.9 5.8 5.7 5.6 5.0 5.6 4.1 3.6 3.1
5.6 4.4 3.6 3.3 3.5 3.9 5.8 6.0 6.0 7.2 6.2 9.8 5.1 6.3 5.9 5.4 6.0 7.3 7.9 4.3 4.6 4.5 5.0 5.2 4.8 5.1 5.3 5.2 5.6 5.7 6.0 6.0 6.2 6.2 6.3 6.4 6.3 5.9 5.3 4.3 4.3 4.2 4.1 3.7
5.0 6.2 nan 5.2 3.4 3.5 5.3 5.3 7.0 5.3 7.1 8.2 6.8 6.9 6.9 7.0 8.0 8.5 7.6 6.5 5.6 4.6 4.5 4.9 5.3 5.4 5.1 5.7 5.9 5.4 5.4 5.4 6.0 5.5 5.7 6.3 6.6 6.1 6.2 6.2 6.4 5.7 4.8 5.4
4.4 6.2 4.8 5.5 4.7 5.5 6.2 6.6 6.8 7.0 6.7 8.8 9.1 6.5 5.7 9.4 10.0 10.6 7.4 6.9 7.0 6.5 6.0 5.9 5.8 6.3 4.7 4.4 3.5 5.2 5.3 4.9 5.5 6.5 5.9 6.3 6.5 6.9 6.9 7.2 6.7 6.2 6.1 5.8
5.2 5.8 6.2 4.6 4.7 5.5 6.0 6.0 6.4 6.4 7.2 6.8 7.8 9.3 6.1 8.9 9.4 8.9 8.0 6.9 6.0 6.0 6.4 6.4 6.5 5.3 4.1 4.2 4.1 5.2 5.7 5.1 5.1 4.7 5.5 6.0 6.4 6.7 6.0 6.7 7.2 6.6 6.5 5.8
5.2 4.8 5.2 5.0 5.3 6.6 6.6 6.7 6.6 8.3 6.6 7.4 7.0 7.6 7.7 7.9 6.8 7.3 8.4 7.2 6.4 6.1 5.9 7.0 6.1 4.8 4.4 5.3 5.6 5.4 5.8 5.3 5.6 4.5 5.0 5.7 5.6 5.9 5.1 5.4 5.3 5.2 5.1 5.4
nan 5.8 8.0 7.2 6.5 5.9 8.0 7.6 7.9 7.5 5.7 6.7 9.5 9.4 9.1 9.2 7.8 6.9 6.1 7.4 8.3 8.7 8.6 6.8 6.6 5.8 5.6 5.5 5.5 5.8 5.5 4.9 4.7 4.6 5.9 6.5 5.8 6.0 6.2 6.0 5.4 6.1 5.1 5.0
5.8 6.2 8.6 7.7 7.6 7.3 6.8 8.0 9.1 9.7 8.1 7.9 9.2 10.4 10.4 9.7 9.4 8.2 7.8 8.3 9.2 9.2 8.4 7.9 7.1 6.6 5.6 5.3 5.5 5.5 5.7 5.3 5.0 5.1 6.5 7.3 6.5 7.1 6.9 7.4 6.6 7.3 6.6 5.9
6.0 4.8 8.8 6.7 6.7 7.0 7.1 7.9 7.6 8.6 9.2 8.8 8.3 9.5 7.8 8.5 8.9 8.5 8.0 9.5 10.7 9.9 9.0 7.4 6.9 6.3 6.9 7.1 7.6 7.0 7.5 7.1 6.0 7.0 7.3 7.8 8.2 8.3 8.9 8.6 8.4 7.2 5.6 5.1
6.9 7.2 4.6 4.7 7.5 7.6 5.3 9.1 8.6 8.6 8.6 8.3 10.3 6.6 7.6 8.7 9.9 9.0 9.3 10.4 10.6 8.9 8.1 8.1 7.9 9.0 9.8 9.4 9.7 9.8 8.8 8.4 8.2 8.1 9.4 9.3 9.4 9.2 8.4 8.5 8.4 7.5 7.0 6.8
8.2 6.9 5.0 4.4 4.2 5.7 7.0 7.0 7.3 8.1 8.5 9.1 9.2 8.4 7.7 8.2 9.5 9.1 8.9 9.5 10.6 10.4 9.0 8.7 7.5 6.9 6.1 7.7 6.1 7.1 8.2 8.5 8.4 8.8 8.5 8.8 9.3 7.5 7.0 7.5 7.0 6.3 6.3 6.2
6.1 6.9 4.8 5.2 6.0 6.3 5.1 7.8 8.7 9.3 8.1 8.3 9.4 8.7 7.5 7.2 9.6 7.2 7.6 9.2 9.3 9.5 8.2 8.2 7.3 7.2 7.3 7.2 7.6 7.7 7.8 8.0 8.5 8.0 7.4 6.8 6.0 5.9 5.7 6.3 6.3 6.1 6.1 6.1
6.8 6.9 6.2 4.6 4.9 6.9 6.5 7.2 5.5 6.8 7.6 7.8 7.7 8.1 7.3 5.0 7.1 5.8 5.8 6.9 7.2 7.9 8.3 8.2 8.0 7.4 6.7 6.5 6.0 5.0 5.2 5.3 6.7 6.7 6.7 6.4 5.1 5.1 5.3 4.9 5.3 5.3 4.8 5.0
5.3 4.5 4.6 4.7 4.7 5.5 6.3 5.1 nan 7.7 6.9 7.5 7.3 7.4 8.2 8.9 6.7 6.4 7.3 7.4 6.9 7.4 7.5 7.1 7.0 7.8 6.1 5.3 5.9 6.7 5.9 6.9 4.8 4.8 4.4 5.0 4.5 5.2 4.3 4.7 5.0 4.9 5.2 5.3
5.9 5.3 5.0 5.1 5.1 6.5 6.0 nan 9.5 6.4 6.9 7.0 6.8 7.5 8.5 7.3 7.3 7.3 7.4 7.3 7.3 7.9 7.7 5.5 5.7 5.2 5.0 4.2 4.2 5.3 6.9 7.6 8.6 8.5 8.4 7.8 6.5 6.0 6.1 5.6 5.9 5.3 5.7 5.8
6.3 5.5 4.7 6.4 5.4 5.7 6.6 6.5 6.2 7.0 6.7 6.4 6.7 7.6 7.2 8.1 7.6 6.3 6.4 5.8 7.5 nan nan 8.0 7.4 7.9 8.7 7.5 7.2 8.3 9.1 9.0 9.2 7.6 7.0 6.6 6.3 6.2 6.1 5.7 6.5 5.8 6.0 5.8
6.1 6.2 5.0 6.0 5.7 6.3 6.3 5.9 6.2 6.4 5.3 4.8 7.5 8.9 9.0 8.6 8.1 10.0 nan nan nan 4.0 4.5 5.3 5.8 6.7 7.0 6.7 6.9 6.5 8.1 8.2 6.4 6.3 7.2 7.4 6.9 5.9 6.3 5.2 5.2 5.1 5.7 6.1
3.6 3.8 4.5 6.0 5.1 5.3 4.8 5.1 5.6 6.2 6.0 5.9 8.1 8.9 10.0 8.9 8.3 10.0 3.6 4.1 4.1 5.5 6.3 7.0 7.0 7.3 7.9 8.1 8.0 7.6 8.0 7.6 7.0 6.7 8.1 7.2 6.3 6.0 7.0 6.7 5.8 6.2 6.4 5.7
5.4 5.9 4.1 4.2 4.9 4.7 4.7 nan nan 5.0 7.7 7.5 5.8 3.8 3.5 6.9 5.6 5.0 5.0 4.7 5.2 6.4 7.9 8.5 8.5 9.0 9.9 9.7 9.6 8.9 7.5 7.0 7.5 8.9 7.9 7.1 6.8 7.2 7.4 7.7 8.5 nan nan nan